Total_Precipitation_Accumulation
0.23 0.20 0.25 0.08 0.02 0.01 0.00 0.00 0.00 0.00 0.00 0.00 0.00 0.00 0.00 0.00 0.00 0.00 0.00 0.00 0.00 0.00 0.00 0.00 0.02 0.05 0.10 0.12 0.20 0.16 0.09 0.04 0.01 0.00 0.01 0.00 0.00 0.00 0.00 0.00 0.00 0.00 0.00
0.33 0.40 0.26 0.18 0.10 0.03 0.02 0.00 0.00 0.00 0.00 0.00 0.00 0.00 0.00 0.00 0.00 0.00 0.00 0.00 0.00 0.00 0.00 0.01 0.02 0.03 0.06 0.10 0.16 0.21 0.16 0.07 0.05 0.04 0.02 0.01 0.01 0.01 0.01 0.01 0.01 0.00 0.00
0.35 0.33 0.67 0.45 0.14 0.09 0.06 0.02 0.00 0.00 0.00 0.00 0.00 0.00 0.00 0.00 0.00 0.00 0.00 0.00 0.00 0.00 0.00 0.00 0.01 0.03 0.04 0.04 0.06 0.11 0.22 0.17 0.10 0.13 0.11 0.05 0.01 0.02 0.02 0.03 0.02 0.01 0.01
0.05 0.25 0.28 0.58 0.54 0.36 0.22 0.07 0.04 0.01 0.00 0.00 0.00 0.00 0.00 0.00 0.00 0.00 0.00 0.00 0.00 0.00 0.00 0.00 0.00 0.01 0.03 0.03 0.02 0.09 0.20 0.24 0.15 0.12 0.16 0.13 0.04 0.03 0.04 0.05 0.05 0.03 0.02
0.03 0.06 0.14 0.16 0.28 0.30 0.25 0.13 0.06 0.01 0.00 0.01 0.01 0.00 0.01 0.01 0.00 0.00 0.00 0.02 0.01 0.00 0.00 0.00 0.00 0.00 0.01 0.01 0.03 0.08 0.10 0.16 0.16 0.16 0.18 0.18 0.14 0.10 0.14 0.16 0.11 0.08 0.08
0.20 0.14 0.11 0.13 0.10 0.12 0.14 0.10 0.06 0.04 0.02 0.02 0.03 0.01 0.02 0.01 0.00 0.00 0.01 0.01 0.01 0.01 0.00 0.00 0.00 0.00 0.00 0.00 0.02 0.03 0.05 0.07 0.16 0.21 0.22 0.27 0.30 0.20 0.19 0.20 0.16 0.11 0.10
0.55 0.46 0.35 0.24 0.15 0.06 0.05 0.10 0.12 0.15 0.15 0.20 0.18 0.03 0.01 0.00 0.00 0.00 0.00 0.00 0.00 0.00 0.00 0.00 0.00 0.00 0.00 0.00 0.01 0.02 0.05 0.05 0.10 0.20 0.23 0.24 0.28 0.24 0.29 0.33 0.27 0.23 0.21
0.86 0.63 0.54 0.49 0.36 0.26 0.15 0.19 0.22 0.23 0.16 0.23 0.24 0.10 0.02 0.00 0.00 0.00 0.00 0.00 0.00 0.00 0.00 0.00 0.00 0.00 0.00 0.00 0.00 0.01 0.03 0.05 0.07 0.20 0.32 0.28 0.30 0.40 0.50 0.58 0.42 0.25 0.26
1.18 1.33 1.31 0.98 0.67 0.74 0.85 0.85 0.77 0.71 0.57 0.42 0.31 0.25 0.08 0.01 0.01 0.01 0.01 0.00 0.00 0.00 0.00 0.01 0.01 0.00 0.00 0.00 0.00 0.00 0.01 0.03 0.03 0.06 0.21 0.45 0.59 0.57 0.44 0.34 0.22 0.23 0.24
1.52 1.75 2.05 2.27 2.10 1.64 1.22 1.18 1.17 1.01 1.01 0.94 0.86 0.56 0.42 0.28 0.18 0.09 0.03 0.02 0.02 0.01 0.02 0.02 0.01 0.00 0.00 0.00 0.01 0.02 0.03 0.04 0.06 0.10 0.16 0.33 0.67 0.73 0.54 0.41 0.41 0.40 0.34
1.86 1.78 1.84 1.87 1.80 1.64 1.74 1.61 1.39 1.37 1.31 1.08 0.93 0.76 0.63 0.55 0.52 0.42 0.23 0.13 0.09 0.06 0.04 0.02 0.01 0.01 0.01 0.02 0.03 0.05 0.08 0.07 0.09 0.14 0.20 0.27 0.40 0.65 0.91 0.91 0.73 0.64 0.60
1.61 1.54 1.39 1.26 1.29 1.28 1.29 1.47 1.55 1.37 1.24 1.20 1.14 1.01 0.83 0.74 0.64 0.67 0.58 0.37 0.28 0.20 0.15 0.12 0.09 0.06 0.04 0.06 0.11 0.18 0.22 0.23 0.30 0.38 0.44 0.47 0.49 0.58 0.70 0.75 0.76 0.79 0.89
1.46 1.30 1.18 1.11 1.05 1.05 1.04 1.06 1.05 1.03 1.05 0.97 0.88 0.88 0.93 0.92 0.88 0.88 0.80 0.59 0.35 0.21 0.15 0.10 0.08 0.07 0.06 0.07 0.12 0.22 0.26 0.29 0.31 0.38 0.49 0.62 0.68 0.62 0.64 0.89 1.31 1.32 1.28
1.36 1.34 1.24 1.12 0.97 0.94 0.95 0.94 0.93 0.94 0.94 0.95 0.95 0.85 0.79 0.72 0.72 0.69 0.66 0.63 0.54 0.33 0.24 0.21 0.17 0.17 0.18 0.21 0.28 0.35 0.31 0.39 0.45 0.56 0.68 0.78 0.82 0.81 0.76 0.86 0.85 0.68 0.62
1.08 1.12 1.12 1.02 0.84 0.72 0.63 0.64 0.62 0.56 0.58 0.62 0.53 0.46 0.41 0.39 0.45 0.43 0.43 0.55 0.87 0.94 0.73 0.60 0.52 0.48 0.47 0.53 0.63 0.60 0.56 0.69 0.80 0.89 0.90 0.93 0.79 0.80 0.72 0.67 0.66 0.44 0.41
0.50 0.55 0.62 0.65 0.66 0.71 0.78 0.73 0.62 0.58 0.54 0.51 0.52 0.58 0.57 0.51 0.49 0.48 0.51 0.58 0.60 0.82 0.98 0.80 0.76 0.77 0.84 0.91 0.99 0.86 0.82 0.87 0.78 0.75 0.77 0.62 0.53 0.46 0.39 0.38 0.37 0.36 0.35
0.08 0.09 0.11 0.14 0.16 0.19 0.31 0.45 0.55 0.63 0.69 0.72 0.80 0.90 0.95 0.95 1.02 1.01 1.03 1.14 1.26 1.26 1.28 1.08 0.95 0.86 0.83 0.86 0.85 0.69 0.55 0.43 0.40 0.47 0.39 0.34 0.27 0.21 0.19 0.17 0.16 0.16 0.18
0.05 0.05 0.06 0.06 0.06 0.10 0.13 0.14 0.16 0.18 0.24 0.30 0.40 0.50 0.54 0.58 0.66 0.71 0.77 0.81 1.00 1.31 1.48 1.27 1.08 0.92 0.76 0.61 0.46 0.32 0.27 0.25 0.23 0.30 0.23 0.14 0.12 0.12 0.12 0.13 0.13 0.12 0.11
0.06 0.05 0.04 0.05 0.06 0.05 0.06 0.08 0.11 0.14 0.20 0.29 0.36 0.40 0.42 0.43 0.47 0.48 0.53 0.65 0.75 0.81 0.90 0.81 0.67 0.57 0.47 0.42 0.38 0.32 0.27 0.20 0.14 0.16 0.11 0.09 0.08 0.08 0.08 0.07 0.06 0.06 0.06
0.05 0.04 0.05 0.05 0.07 0.08 0.10 0.11 0.11 0.11 0.10 0.10 0.13 0.15 0.22 0.31 0.43 0.62 0.85 0.95 0.89 0.74 0.62 0.51 0.48 0.38 0.30 0.23 0.16 0.10 0.08 0.04 0.02 0.01 0.01 0.00 0.00 0.00 0.00 0.00 0.00 0.00 0.00
0.04 0.04 0.08 0.14 0.16 0.17 0.20 0.19 0.19 0.20 0.21 0.25 0.26 0.31 0.37 0.49 0.56 0.53 0.44 0.36 0.36 0.38 0.39 0.43 0.37 0.26 0.17 0.08 0.05 0.03 0.03 0.02 0.00 0.00 0.00 0.00 0.00 0.00 0.00 0.00 0.00 0.00 0.00
0.10 0.10 0.13 0.14 0.17 0.21 0.37 0.31 0.25 0.26 0.29 0.31 0.34 0.37 0.41 0.50 0.40 0.39 0.30 0.24 0.19 0.24 0.22 0.16 0.12 0.08 0.07 0.07 0.03 0.02 0.03 0.06 0.05 0.00 0.00 0.00 0.00 0.00 0.00 0.00 0.00 0.00 0.00
0.15 0.24 0.25 0.20 0.16 0.15 0.29 0.24 0.22 0.20 0.23 0.25 0.25 0.23 0.20 0.19 0.17 0.13 0.19 0.20 0.24 0.20 0.13 0.06 0.05 0.02 0.01 0.02 0.07 0.09 0.07 0.09 0.04 0.00 0.01 0.00 0.00 0.00 0.00 0.00 0.00 0.00 0.00
0.29 0.25 0.27 0.37 0.45 0.54 0.51 0.36 0.28 0.20 0.19 0.17 0.15 0.13 0.09 0.04 0.03 0.03 0.05 0.11 0.08 0.10 0.13 0.12 0.11 0.10 0.09 0.08 0.09 0.14 0.06 0.03 0.01 0.00 0.00 0.01 0.00 0.00 0.00 0.00 0.00 0.00 0.00
0.68 0.77 0.64 0.55 0.66 0.74 0.61 0.47 0.30 0.22 0.18 0.13 0.07 0.02 0.01 0.00 0.03 0.03 0.04 0.02 0.00 0.01 0.05 0.09 0.13 0.18 0.22 0.22 0.16 0.14 0.12 0.10 0.05 0.00 0.00 0.00 0.00 0.00 0.00 0.00 0.00 0.00 0.00
0.68 0.66 0.70 0.57 0.52 0.48 0.35 0.27 0.20 0.12 0.06 0.02 0.00 0.00 0.02 0.01 0.02 0.05 0.04 0.01 0.00 0.00 0.04 0.04 0.02 0.04 0.06 0.07 0.06 0.03 0.05 0.17 0.11 0.11 0.00 0.10 0.04 0.03 0.15 0.01 0.00 0.00 0.00